Wind_Speed
48 48 49 54 57 55 54 53 54 57 58 60 62 65 68 70 73 73 72 73 74 75 77 76 73 68 66 64 63 59 58 58 59 58 57 58 59 59 60 61 61 61 64
45 50 52 52 52 53 55 56 60 62 64 67 69 71 73 75 76 77 77 79 81 78 77 76 73 71 66 65 64 62 61 61 62 61 60 61 61 61 61 62 63 62 60
45 46 48 50 53 55 58 62 64 66 69 72 74 77 79 80 81 82 84 83 78 74 71 71 69 69 68 66 65 65 64 62 63 63 64 63 63 62 64 64 64 63 62
48 50 53 56 58 60 63 66 68 70 74 76 79 81 83 84 86 91 84 77 71 66 64 64 62 62 63 66 66 65 65 65 66 64 65 64 63 63 63 63 64 65 65
53 55 58 61 63 65 68 70 71 75 77 78 81 85 87 89 90 78 68 65 62 61 58 58 58 57 59 60 62 64 65 66 66 66 66 66 65 64 64 67 66 66 64
57 60 63 64 67 69 70 72 73 73 78 81 86 90 93 90 73 65 65 64 63 61 59 59 58 58 56 57 59 61 62 62 64 66 66 66 66 66 68 67 65 63 62
62 65 67 68 69 71 71 71 73 76 81 86 91 95 91 72 66 67 67 66 64 61 60 61 58 59 59 58 58 57 58 59 61 63 65 66 66 68 67 62 61 63 65
66 67 68 70 71 71 70 71 75 80 86 91 94 87 73 68 69 68 66 62 59 57 54 52 53 56 56 57 58 58 58 58 60 62 64 65 66 65 63 59 63 64 65
68 70 71 72 71 70 72 75 80 85 89 92 86 73 65 67 68 64 59 56 54 53 53 51 49 49 51 53 54 55 55 57 59 61 61 61 60 58 56 57 60 59 61
71 72 72 72 71 72 76 80 85 90 89 85 72 63 62 64 63 58 55 52 51 50 50 50 49 47 45 45 47 49 49 50 51 52 51 50 49 48 49 50 51 53 55
72 73 73 71 73 76 80 84 88 88 83 71 60 56 54 59 59 57 52 43 39 38 41 44 44 44 42 41 39 38 38 39 41 39 39 41 39 39 41 41 40 38 43
73 73 73 74 76 81 84 87 88 83 69 58 53 49 50 54 50 43 36 31 27 26 26 28 32 36 37 38 38 38 37 35 32 33 34 31 30 32 36 33 30 33 36
73 74 76 80 82 85 87 88 83 66 59 52 45 43 45 43 39 33 31 29 25 21 16 15 18 22 24 24 27 29 27 28 27 29 27 26 26 27 32 29 28 32 38
75 77 81 85 87 90 90 81 65 61 57 44 39 38 39 37 33 32 28 29 27 20 16 14 14 16 18 18 18 21 21 23 24 27 25 23 22 24 26 27 30 34 36
80 83 86 89 91 89 78 65 63 58 48 37 34 34 35 33 31 31 30 26 24 24 19 14 15 16 17 16 18 21 24 25 26 26 25 24 22 22 24 22 25 27 31
84 88 91 91 87 77 64 63 56 50 37 32 32 31 30 30 30 29 29 27 23 20 20 19 17 18 21 22 22 22 24 27 26 27 27 26 24 23 23 23 21 23 32
90 92 89 84 74 62 62 54 49 42 32 31 29 29 29 28 28 28 27 27 26 26 23 24 25 24 23 22 23 20 21 24 26 28 30 28 26 25 24 23 21 22 23
92 89 81 69 60 57 50 45 43 35 31 30 29 31 27 27 25 25 25 26 26 26 26 24 26 27 26 26 26 25 25 24 25 27 29 30 29 27 25 25 23 22 20
81 68 60 58 53 44 41 39 35 30 29 31 31 32 31 29 28 28 29 28 27 28 29 28 24 24 25 25 25 26 26 25 24 26 29 30 32 31 29 26 25 23 22
63 59 52 47 44 42 40 36 31 29 31 34 36 36 35 35 34 33 33 32 32 32 30 30 30 27 25 24 25 24 24 26 26 26 28 30 30 32 32 31 27 25 24
55 52 51 47 45 43 42 41 39 37 38 40 41 42 42 41 41 40 39 39 37 37 34 34 34 32 29 28 28 29 26 24 25 23 25 28 30 31 32 34 33 30 28
59 56 55 53 49 48 47 45 44 46 47 49 50 49 48 48 49 48 48 47 45 44 42 38 38 37 34 31 30 32 31 29 28 27 26 25 26 28 30 32 34 35 31
67 65 63 62 60 58 56 54 52 53 55 55 55 56 57 56 54 54 55 55 54 52 50 47 44 42 40 36 34 32 32 34 30 30 32 30 28 25 27 30 33 35 37
70 70 70 69 69 67 66 66 65 65 65 66 65 64 65 66 64 63 64 63 61 58 55 52 52 50 45 43 40 38 38 36 36 35 35 39 32 31 30 28 30 33 34
77 76 76 75 76 74 74 73 73 73 74 75 75 75 75 76 75 73 72 72 69 67 61 59 59 58 54 52 49 47 46 42 42 42 38 40 37 35 36 35 33 31 31
82 85 85 83 82 82 81 80 79 79 80 80 83 83 83 83 83 81 80 79 78 75 72 68 67 66 64 61 59 55 54 52 50 50 49 45 47 45 44 41 40 39 38
Wind_Direction
288 290 290 290 294 296 295 296 296 295 294 293 293 292 290 289 289 290 289 289 287 287 284 280 279 278 277 276 276 275 273 272 271 269 269 270 270 270 270 270 267 267 266
288 288 291 293 292 293 293 294 295 296 295 294 294 293 293 293 292 291 291 292 290 285 283 280 277 276 272 271 272 272 271 269 269 269 272 273 274 274 273 273 274 272 266
290 291 292 291 292 292 293 294 295 295 294 295 295 296 296 296 297 296 295 295 291 287 281 278 274 271 270 270 267 268 267 267 267 268 269 272 273 274 274 275 274 274 271
288 289 290 292 293 294 295 295 295 295 296 297 298 298 297 300 301 301 297 293 290 285 281 278 274 269 267 268 267 265 265 266 267 267 269 271 272 273 275 275 275 273 271
289 291 292 294 295 295 294 296 298 300 299 299 300 300 303 303 303 299 294 290 286 282 278 276 273 270 267 265 265 264 264 265 267 268 269 271 272 273 276 277 277 275 272
289 292 293 295 296 297 300 301 301 300 301 302 302 303 304 305 300 296 293 290 287 282 278 275 271 270 267 265 265 265 266 266 266 267 269 272 273 275 278 280 278 275 272
291 294 296 298 300 301 302 301 302 303 303 303 304 304 307 303 300 297 293 289 286 282 278 274 271 268 266 264 264 265 266 267 267 268 270 272 275 278 280 280 279 276 273
294 296 298 299 301 302 301 302 303 304 304 305 306 307 306 304 302 298 295 291 287 284 279 275 270 266 264 264 263 263 264 266 267 269 270 272 276 278 279 280 279 279 276
297 298 299 300 301 301 303 303 303 304 305 307 308 307 307 305 303 302 298 294 288 283 280 275 271 269 265 263 263 264 265 265 267 270 271 273 275 277 279 280 281 280 278
296 298 299 300 300 301 302 302 302 305 308 308 309 309 310 310 309 308 302 295 289 282 276 272 269 269 268 267 266 266 267 268 270 271 272 271 274 279 280 282 286 282 279
297 298 299 299 299 299 301 303 304 308 309 307 309 311 313 315 313 311 308 302 295 285 275 270 267 265 266 265 266 267 268 269 268 268 268 270 277 278 284 292 287 284 283
295 297 298 298 297 299 301 304 307 308 307 307 309 313 316 318 320 317 316 313 308 296 284 273 267 265 265 265 265 263 268 267 265 266 267 273 276 289 302 298 293 288 289
295 296 296 296 297 299 302 305 307 304 303 305 309 312 317 322 327 335 344 335 329 318 307 293 282 276 272 267 264 266 265 265 265 265 267 269 282 296 311 302 293 296 305
294 294 295 297 299 301 304 306 302 300 299 300 305 311 315 323 338 347 352 353 345 331 324 313 299 291 286 280 273 271 268 267 268 264 261 269 279 292 311 316 299 290 308
293 295 295 297 299 303 305 302 301 298 293 291 298 304 312 325 339 348 351 353 351 342 334 326 321 309 298 294 285 278 278 271 271 263 257 267 275 287 300 316 309 294 301
294 293 295 298 300 302 302 301 300 297 287 284 293 298 311 324 334 341 345 342 338 334 330 329 323 314 306 295 284 281 279 279 271 261 254 261 271 276 291 306 320 304 288
293 295 297 298 298 299 300 299 299 291 278 277 287 294 305 318 328 332 336 336 333 327 320 312 312 313 307 304 299 287 278 285 277 265 256 258 264 272 281 293 301 311 314
296 296 295 294 294 297 297 298 297 284 273 273 282 288 299 309 318 322 327 332 326 323 324 320 306 304 302 299 297 296 289 286 283 274 263 261 266 268 272 281 294 300 309
294 294 293 293 292 292 293 297 293 278 268 272 281 287 295 299 305 308 311 317 318 318 313 311 314 313 309 303 299 296 294 290 284 281 275 268 264 267 270 271 279 289 302
291 292 291 290 291 290 290 290 287 276 272 275 280 284 288 294 297 299 302 303 304 306 310 306 303 300 303 309 310 309 304 297 292 282 278 276 274 269 268 269 269 272 281
289 289 290 290 290 290 290 289 287 280 277 277 279 282 285 287 289 292 294 295 295 295 297 303 302 297 292 291 295 299 303 306 305 298 287 282 280 276 271 267 268 269 271
287 287 286 286 284 283 283 282 281 280 280 279 279 279 280 281 284 287 289 290 291 291 291 295 296 293 293 287 286 286 290 291 296 298 298 294 282 276 274 269 266 265 268
286 285 284 284 283 281 279 277 275 276 276 275 276 277 278 279 279 280 284 285 286 289 287 289 290 288 284 283 283 286 285 285 284 286 288 288 291 291 285 274 269 264 262
284 284 283 281 281 281 279 278 276 275 275 275 275 275 275 276 277 277 278 279 281 282 281 283 283 285 279 280 279 281 282 283 283 280 279 281 280 284 285 286 282 275 268
279 279 279 279 280 279 278 277 276 276 277 276 276 277 276 276 277 277 277 278 278 277 277 276 276 279 277 276 276 275 277 280 278 278 276 277 279 277 277 279 280 281 279
278 277 277 277 277 277 276 275 274 273 274 275 274 274 274 274 274 274 275 276 275 276 276 275 273 274 274 274 274 273 272 273 272 273 274 274 276 276 275 275 276 276 275
Height
10804 10801 10797 10794 10791 10787 10782 10778 10773 10768 10763 10758 10754 10749 10742 10735 10729 10725 10720 10716 10712 10704 10697 10696 10696 10693 10692 10690 10691 10691 10690 10689 10687 10686 10686 10686 10686 10686 10686 10686 10685 10687 10687
10795 10791 10788 10785 10782 10778 10773 10768 10762 10757 10751 10744 10739 10732 10726 10720 10713 10707 10701 10696 10690 10686 10679 10676 10676 10675 10674 10674 10674 10674 10674 10674 10673 10671 10671 10671 10671 10671 10670 10669 10668 10668 10671
10786 10783 10779 10775 10772 10768 10762 10757 10751 10745 10737 10730 10723 10716 10709 10702 10695 10688 10681 10674 10668 10663 10658 10655 10656 10656 10655 10655 10656 10656 10657 10657 10657 10657 10656 10656 10655 10655 10654 10653 10652 10650 10652
10777 10774 10770 10766 10762 10757 10751 10744 10737 10730 10721 10713 10706 10699 10691 10684 10675 10666 10656 10650 10647 10643 10639 10636 10637 10637 10637 10637 10638 10639 10639 10640 10640 10641 10641 10641 10640 10639 10638 10636 10635 10633 10633
10768 10764 10760 10756 10750 10746 10738 10731 10724 10715 10705 10699 10689 10680 10673 10664 10654 10644 10638 10632 10628 10625 10623 10621 10620 10618 10619 10620 10620 10622 10624 10624 10625 10625 10625 10624 10623 10622 10620 10618 10617 10615 10615
10758 10754 10750 10744 10738 10732 10724 10717 10709 10701 10690 10683 10672 10662 10652 10643 10633 10628 10621 10615 10611 10608 10606 10605 10603 10603 10603 10604 10605 10606 10608 10609 10609 10609 10609 10607 10606 10606 10604 10602 10599 10597 10596
10747 10742 10736 10730 10723 10717 10711 10703 10694 10686 10675 10666 10655 10644 10635 10624 10616 10610 10603 10597 10593 10590 10587 10585 10586 10587 10587 10588 10590 10591 10592 10593 10594 10594 10593 10591 10590 10588 10586 10585 10582 10578 10575
10734 10729 10722 10716 10709 10703 10696 10689 10680 10671 10660 10649 10639 10627 10617 10608 10599 10591 10583 10578 10575 10572 10569 10568 10568 10569 10570 10572 10573 10575 10577 10579 10579 10579 10577 10576 10575 10573 10571 10569 10564 10559 10554
10720 10715 10709 10702 10695 10688 10682 10674 10665 10655 10646 10631 10620 10611 10602 10593 10583 10574 10566 10561 10557 10554 10552 10552 10553 10554 10554 10556 10558 10560 10562 10563 10564 10563 10563 10562 10561 10559 10557 10552 10546 10542 10538
10707 10702 10696 10689 10681 10674 10667 10659 10650 10640 10629 10617 10605 10598 10588 10578 10567 10559 10551 10544 10539 10537 10534 10535 10537 10539 10541 10543 10544 10546 10548 10549 10549 10549 10550 10549 10549 10547 10543 10539 10534 10526 10519
10692 10686 10680 10675 10667 10660 10652 10644 10634 10625 10614 10603 10595 10586 10578 10568 10558 10545 10536 10530 10524 10521 10520 10521 10523 10526 10529 10530 10533 10535 10535 10536 10537 10538 10539 10539 10539 10537 10532 10528 10520 10512 10507
10677 10671 10664 10658 10653 10645 10637 10629 10621 10610 10601 10592 10585 10578 10570 10561 10550 10538 10528 10521 10516 10513 10511 10511 10513 10515 10518 10521 10522 10526 10526 10526 10528 10529 10530 10531 10531 10528 10522 10516 10509 10502 10497
10663 10657 10650 10642 10637 10632 10625 10615 10607 10596 10590 10583 10577 10571 10564 10555 10545 10535 10525 10519 10513 10510 10508 10507 10508 10509 10511 10514 10516 10518 10519 10519 10521 10522 10523 10523 10522 10520 10515 10509 10503 10497 10491
10648 10642 10636 10628 10621 10614 10608 10601 10592 10585 10579 10574 10570 10565 10559 10551 10541 10534 10526 10521 10515 10512 10509 10508 10508 10508 10509 10511 10512 10512 10513 10513 10515 10515 10515 10516 10516 10514 10511 10505 10499 10494 10490
10634 10628 10621 10613 10606 10598 10591 10583 10578 10571 10566 10563 10562 10558 10553 10546 10538 10532 10526 10522 10519 10515 10513 10511 10509 10509 10508 10509 10509 10508 10508 10507 10507 10508 10509 10509 10509 10508 10506 10502 10497 10492 10487
10619 10611 10604 10597 10590 10583 10575 10569 10563 10557 10555 10554 10553 10551 10547 10542 10535 10530 10525 10521 10519 10516 10513 10511 10510 10509 10506 10504 10504 10503 10502 10500 10500 10501 10502 10503 10503 10503 10501 10498 10495 10491 10487
10601 10594 10587 10581 10574 10568 10562 10556 10551 10546 10544 10544 10544 10543 10540 10536 10532 10527 10523 10519 10515 10513 10511 10509 10506 10504 10503 10500 10498 10497 10496 10495 10493 10493 10495 10496 10497 10496 10495 10493 10492 10489 10486
10583 10576 10570 10565 10560 10555 10550 10546 10541 10537 10535 10535 10535 10534 10533 10529 10527 10523 10520 10517 10513 10509 10506 10505 10502 10499 10497 10495 10492 10491 10490 10489 10487 10486 10487 10489 10489 10490 10489 10488 10487 10485 10483
10564 10559 10554 10550 10546 10543 10540 10536 10531 10529 10528 10527 10527 10525 10524 10522 10520 10517 10514 10511 10509 10505 10502 10499 10498 10495 10492 10489 10487 10484 10482 10481 10481 10479 10478 10479 10481 10482 10482 10483 10482 10480 10479
10548 10544 10541 10538 10535 10533 10530 10526 10523 10521 10520 10519 10518 10516 10515 10513 10511 10509 10507 10504 10501 10498 10496 10493 10491 10490 10487 10486 10482 10480 10478 10475 10474 10473 10471 10470 10471 10473 10474 10475 10476 10476 10475
10536 10533 10530 10527 10524 10523 10520 10518 10515 10512 10510 10509 10508 10506 10504 10503 10501 10499 10497 10494 10492 10489 10488 10486 10483 10481 10480 10479 10476 10474 10473 10471 10467 10466 10465 10464 10463 10463 10464 10465 10466 10468 10469
10523 10519 10517 10514 10513 10511 10508 10506 10504 10502 10500 10498 10496 10495 10492 10490 10489 10487 10485 10482 10481 10479 10477 10476 10473 10471 10470 10469 10468 10466 10465 10464 10461 10459 10458 10456 10454 10454 10454 10455 10457 10459 10460
10504 10503 10500 10498 10497 10496 10494 10492 10490 10487 10484 10483 10480 10478 10476 10475 10475 10473 10471 10469 10467 10466 10465 10464 10462 10460 10459 10459 10457 10456 10455 10454 10454 10452 10449 10448 10447 10446 10445 10445 10446 10449 10451
10486 10483 10481 10479 10478 10477 10475 10474 10472 10471 10468 10465 10463 10461 10458 10456 10457 10457 10455 10453 10452 10450 10450 10451 10447 10445 10445 10445 10446 10445 10444 10444 10442 10442 10442 10437 10440 10438 10437 10436 10436 10437 10439
10465 10462 10460 10456 10454 10453 10452 10451 10450 10448 10447 10444 10442 10442 10439 10435 10435 10436 10435 10433 10433 10432 10435 10433 10431 10429 10429 10430 10431 10432 10429 10431 10429 10428 10430 10427 10428 10429 10428 10427 10427 10427 10428
10440 10437 10434 10433 10431 10427 10427 10425 10423 10422 10419 10417 10417 10416 10416 10412 10410 10411 10412 10412 10410 10410 10413 10414 10413 10412 10411 10411 10413 10415 10415 10415 10414 10412 10414 10416 10413 10416 10416 10416 10416 10417 10417